Back to catalog

USA 270

AliveMilitaryGEO
NORAD 41744·PAYLOAD·🇺🇸 United States

Launched Aug 19, 2016 from Cape Canaveral Space Force Station

Loading…

TLE

FreshSource: Space-Track

Epoch: Sep 12, 2026, 07:39 UTC

1 41744U 16052A   26255.31930182 -.00000362  00000-0  00000+0 0  9992
2 41744   4.4143  76.0310 0008344 114.6601  41.9377  1.00271630 29005

Track USA 270 in real time with AllMySat

Download on the App Store